User: anonymous   Login
Location: Unspecified
(0.0000°N, 0.0000°E)
Time: 21:37:08
(UTC+00:00)
Language:

APRIZESAT 3 - Orbit

View from above orbital plane
View from above orbital plane
View from above satellite
View from above satellite

Ground track
Ground track

The orbit data is extracted from the following two-line orbital elements,

1 35686U 09041F   18264.78278982 +.00000057 +00000-0 +13063-4 0  9993
2 35686 098.2673 288.7538 0072051 314.5113 045.0228 14.87237792495749
Epoch (UTC): 21 September 2018 18:47:13
Eccentricity: 0.0072051
inclination: 98.2673°
perigee height: 556 km
apogee height: 657 km
right ascension of ascending node: 288.7538°
argument of perigee: 314.5113°
revolutions per day: 14.87237792
mean anomaly at epoch: 45.0228°
orbit number at epoch: 49574

The dashed part of the orbit path shows where the satellite is in the earth's shadow,  

DLR